Vorticity
5 4 3 2 5 5 7 7 6 6 12 9 8 7 7 9 4 8 4 7 11 11 7 7 8 13 8 7 9 8 13 20 12 8 4 7 6 -0 7 13 18 -2 6 3
7 5 6 6 5 7 8 8 7 8 8 3 7 8 10 3 7 10 9 6 8 12 11 7 9 9 12 8 4 6 7 12 17 7 4 9 10 9 -2 5 18 8 4 5
6 4 10 8 6 8 6 7 5 9 7 9 12 16 10 10 10 7 11 8 5 11 13 11 7 11 10 9 11 8 6 8 12 10 9 8 7 4 1 12 14 15 1 4
8 7 10 9 8 7 9 5 10 8 12 8 5 1 13 10 4 -2 7 3 7 8 7 10 11 9 12 11 10 10 11 8 7 9 8 7 8 13 18 11 8 10 5 2
10 11 13 14 9 9 7 8 5 15 13 9 8 10 15 11 12 -3 8 4 7 6 10 9 8 11 9 11 11 11 10 12 10 7 8 9 6 13 24 20 51 22 -2 0
6 7 9 12 9 8 6 5 4 7 10 13 4 5 3 7 12 3 7 6 11 7 6 8 7 10 9 7 12 11 10 9 14 12 7 13 0 -1 23 0 1 5 10 4
10 13 9 11 11 11 9 5 7 6 8 10 4 6 6 5 7 10 6 1 5 11 9 9 7 6 10 8 6 11 10 10 10 13 12 8 7 8 6 12 10 8 8 13
11 11 9 11 5 7 11 9 10 7 6 5 5 9 2 5 6 9 11 2 1 -3 6 10 16 7 7 8 11 8 6 12 8 9 12 14 12 10 9 7 4 4 3 3
13 13 13 10 10 9 11 5 -0 1 4 11 10 6 15 6 5 5 10 12 -4 8 9 6 6 8 9 4 8 8 13 7 9 11 10 11 14 14 12 9 10 7 6 8
7 11 8 6 8 7 5 3 -0 -1 6 6 5 13 24 3 9 2 2 1 2 10 10 4 5 6 6 11 12 16 7 12 13 8 8 11 10 13 12 12 11 10 10 9
3 4 10 11 8 5 3 1 4 5 2 3 5 17 12 24 2 6 7 3 6 7 13 3 6 7 9 7 7 7 11 9 9 7 6 9 13 12 10 14 11 11 13 13
7 6 12 6 7 11 5 6 5 5 4 4 -1 23 13 15 14 6 -1 -3 5 15 2 3 13 14 -4 8 3 12 12 14 12 6 3 5 6 9 17 11 13 12 11 15
8 6 7 7 9 4 9 9 7 3 1 -3 5 32 19 10 11 7 -2 2 4 8 5 6 -2 6 13 10 11 23 24 20 12 14 13 9 6 8 12 13 13 12 10 8
1 0 2 7 6 11 6 6 5 9 2 3 6 24 -1 14 11 3 3 -1 6 2 1 18 -0 14 1 7 20 16 -8 -3 13 15 13 10 8 10 8 9 14 9 10 9
9 7 7 6 4 10 7 10 3 4 8 2 1 9 8 8 26 -1 -2 0 1 4 3 2 10 4 1 -4 -2 -3 -4 -1 3 -2 9 10 5 9 12 10 11 10 13 7
7 6 5 5 6 5 6 5 5 16 8 -2 1 1 4 8 10 12 17 9 11 8 9 4 3 -3 3 -3 -4 -5 -5 8 4 8 7 6 10 7 10 10 8 11 13 8
11 12 12 10 10 7 7 11 6 5 8 10 8 6 3 -0 5 2 7 10 12 6 5 4 7 7 10 13 10 11 1 -1 1 1 16 13 8 6 7 8 9 6 10 9
13 12 13 13 16 16 15 12 14 13 3 5 1 5 4 5 4 3 -1 1 2 3 4 9 8 5 3 17 4 17 -0 0 -0 0 0 15 17 4 4 7 5 7 9 10
17 19 19 13 9 13 16 15 14 15 18 13 -1 4 3 10 4 3 3 0 3 4 2 2 3 6 5 -1 2 10 3 3 5 -3 5 10 16 16 7 6 7 5 6 10
21 19 18 20 17 13 12 12 15 14 12 17 17 13 13 1 0 8 23 6 5 5 7 2 1 -2 -4 0 8 4 15 -4 -2 1 7 -3 12 19 12 7 7 8 6 6
17 18 17 20 18 17 15 14 18 18 10 11 8 14 15 11 19 6 -3 4 7 -14 5 -11 1 7 12 13 7 -3 2 3 5 6 12 1 7 9 18 11 7 7 8 6
17 16 13 14 16 15 17 16 10 20 18 15 15 9 5 5 8 10 10 14 13 12 11 11 11 13 10 9 4 11 12 7 75 17 1 -7 7 6 8 13 12 10 6 5
17 20 19 13 14 14 13 11 13 14 20 12 13 20 28 15 5 2 -12 7 23 14 11 15 10 6 9 3 16 3 10 18 -31 -9 16 12 3 10 8 6 11 9 8 6
14 13 13 16 19 12 13 17 13 7 3 11 17 17 19 17 16 18 23 22 11 3 -2 -16 -3 14 15 14 10 1 32 1 31 -43 53 19 7 15 4 5 5 7 9 10
11 12 11 12 15 19 20 14 11 22 21 13 13 10 9 7 8 9 11 9 12 12 13 14 24 7 12 14 9 3 4 5 -9 18 -16 6 5 11 6 4 1 8 5 -7
19 20 20 21 19 17 17 14 15 18 17 13 11 10 12 13 12 14 12 13 13 11 11 12 16 18 17 24 11 10 6 11 10 2 13 -10 8 -8 10 8 3 -4 8 15
Height
5913 5914 5914 5914 5914 5914 5914 5914 5913 5912 5912 5911 5911 5911 5910 5908 5907 5906 5904 5902 5901 5902 5900 5899 5900 5900 5901 5902 5902 5903 5904 5904 5905 5906 5908 5911 5913 5916 5918 5920 5922 5925 5929 5932
5912 5910 5910 5911 5911 5912 5912 5912 5910 5910 5910 5910 5909 5910 5910 5909 5907 5907 5906 5903 5901 5900 5900 5899 5899 5900 5900 5901 5901 5902 5903 5904 5904 5906 5908 5909 5911 5914 5916 5918 5919 5922 5927 5930
5907 5907 5907 5907 5908 5909 5909 5909 5906 5909 5909 5908 5908 5909 5910 5909 5908 5907 5906 5904 5901 5900 5900 5899 5898 5898 5899 5899 5900 5901 5902 5903 5904 5904 5905 5908 5910 5911 5913 5915 5916 5918 5922 5926
5903 5901 5903 5903 5904 5906 5906 5904 5905 5906 5907 5907 5907 5909 5909 5907 5906 5906 5906 5904 5903 5900 5900 5899 5898 5898 5898 5898 5899 5900 5900 5901 5903 5904 5905 5906 5908 5908 5908 5911 5913 5915 5920 5923
5897 5897 5898 5900 5900 5902 5902 5902 5903 5903 5904 5905 5905 5907 5907 5906 5906 5905 5904 5903 5902 5900 5900 5899 5897 5897 5897 5897 5897 5898 5899 5900 5901 5903 5904 5905 5906 5906 5906 5906 5904 5910 5917 5921
5891 5893 5895 5896 5895 5897 5898 5899 5900 5900 5901 5903 5902 5904 5906 5905 5906 5905 5904 5903 5902 5901 5900 5900 5898 5896 5896 5896 5897 5897 5898 5899 5900 5901 5902 5903 5904 5904 5904 5905 5906 5910 5915 5918
5888 5890 5890 5891 5892 5894 5895 5896 5897 5899 5899 5901 5900 5903 5904 5903 5904 5905 5904 5904 5902 5901 5900 5899 5898 5896 5896 5895 5896 5897 5897 5898 5898 5899 5900 5901 5902 5903 5903 5904 5907 5909 5912 5914
5885 5887 5887 5887 5889 5889 5890 5892 5894 5895 5897 5898 5898 5901 5901 5901 5902 5902 5903 5903 5902 5900 5900 5898 5897 5897 5896 5896 5895 5895 5897 5897 5897 5898 5898 5899 5900 5902 5903 5904 5906 5908 5910 5911
5883 5884 5884 5885 5886 5888 5889 5889 5892 5892 5895 5896 5896 5898 5899 5898 5900 5900 5901 5900 5901 5899 5897 5896 5896 5895 5895 5895 5895 5895 5895 5896 5897 5897 5898 5898 5898 5899 5901 5902 5904 5905 5907 5909
5880 5881 5882 5883 5884 5886 5887 5888 5890 5890 5890 5892 5893 5893 5894 5895 5897 5898 5899 5899 5899 5899 5897 5896 5895 5894 5893 5893 5894 5895 5894 5894 5895 5896 5896 5897 5897 5898 5899 5900 5900 5901 5903 5905
5876 5878 5880 5880 5882 5882 5882 5883 5884 5884 5885 5886 5887 5889 5888 5890 5892 5894 5894 5895 5896 5896 5896 5896 5895 5894 5893 5893 5892 5892 5893 5893 5893 5893 5894 5894 5895 5896 5897 5898 5898 5899 5900 5902
5871 5871 5874 5876 5875 5876 5876 5878 5878 5878 5880 5879 5880 5886 5883 5884 5887 5889 5890 5891 5893 5894 5894 5894 5894 5894 5895 5894 5892 5890 5890 5890 5890 5891 5891 5892 5893 5893 5894 5895 5896 5897 5897 5898
5863 5862 5865 5869 5871 5869 5869 5872 5873 5873 5873 5873 5875 5882 5879 5880 5882 5884 5886 5888 5889 5891 5891 5892 5893 5893 5893 5893 5891 5889 5888 5887 5887 5887 5888 5889 5890 5891 5891 5892 5893 5894 5894 5895
5853 5852 5853 5857 5862 5860 5861 5863 5865 5866 5865 5868 5869 5874 5875 5877 5877 5879 5881 5883 5885 5885 5887 5888 5888 5888 5889 5889 5888 5887 5886 5886 5886 5885 5885 5885 5886 5886 5888 5889 5889 5890 5891 5891
5843 5842 5842 5844 5846 5848 5852 5853 5855 5856 5859 5858 5863 5864 5869 5870 5872 5873 5875 5877 5879 5880 5881 5883 5885 5885 5885 5885 5885 5885 5884 5884 5884 5883 5883 5883 5882 5883 5884 5885 5886 5887 5887 5888
5832 5830 5830 5831 5833 5835 5835 5840 5843 5846 5847 5849 5852 5855 5859 5861 5864 5865 5868 5870 5872 5874 5875 5876 5878 5881 5881 5881 5881 5881 5880 5880 5880 5880 5880 5879 5879 5879 5880 5881 5882 5882 5883 5884
5817 5817 5817 5816 5821 5822 5821 5826 5830 5834 5835 5838 5841 5846 5849 5850 5853 5856 5858 5860 5863 5866 5867 5869 5870 5871 5873 5874 5875 5877 5877 5876 5875 5875 5874 5874 5874 5873 5874 5876 5877 5878 5878 5879
5804 5804 5802 5802 5805 5803 5811 5815 5818 5819 5823 5826 5829 5832 5837 5838 5841 5845 5847 5850 5851 5854 5856 5858 5859 5861 5863 5864 5865 5868 5869 5869 5869 5869 5869 5868 5869 5869 5869 5870 5871 5872 5874 5875
5787 5787 5788 5788 5791 5792 5795 5798 5802 5806 5808 5811 5814 5817 5821 5825 5828 5832 5836 5839 5842 5843 5844 5848 5850 5852 5854 5856 5857 5859 5860 5860 5861 5862 5862 5863 5863 5864 5864 5864 5865 5866 5868 5870
5772 5772 5774 5775 5777 5777 5782 5784 5787 5790 5794 5794 5798 5802 5805 5804 5808 5814 5819 5823 5827 5829 5835 5838 5840 5842 5844 5846 5848 5848 5849 5851 5851 5851 5852 5855 5856 5856 5857 5858 5858 5860 5862 5864
5760 5759 5761 5762 5763 5765 5767 5770 5774 5777 5780 5779 5783 5786 5790 5792 5794 5797 5798 5805 5808 5810 5817 5821 5826 5829 5832 5835 5836 5837 5836 5837 5837 5840 5843 5845 5847 5849 5849 5849 5850 5852 5854 5856
5751 5751 5750 5751 5753 5755 5756 5757 5760 5762 5762 5765 5770 5773 5776 5779 5782 5784 5785 5788 5790 5795 5799 5804 5810 5814 5819 5823 5823 5825 5824 5825 5812 5822 5825 5831 5837 5839 5840 5842 5843 5845 5846 5848
5742 5742 5742 5742 5744 5744 5744 5745 5746 5748 5751 5753 5755 5758 5761 5764 5767 5771 5774 5775 5776 5780 5783 5789 5795 5799 5805 5810 5811 5811 5811 5812 5807 5816 5804 5813 5826 5831 5830 5831 5833 5836 5837 5839
5734 5732 5733 5733 5735 5734 5733 5734 5735 5736 5738 5742 5745 5747 5749 5751 5752 5753 5758 5761 5763 5766 5771 5774 5778 5784 5787 5793 5795 5798 5799 5797 5797 5785 5798 5811 5815 5819 5823 5822 5824 5825 5826 5827
5727 5727 5727 5727 5727 5725 5727 5726 5725 5726 5726 5729 5731 5733 5736 5738 5740 5740 5743 5745 5748 5751 5754 5758 5763 5767 5772 5776 5781 5782 5783 5784 5788 5794 5794 5799 5804 5810 5812 5813 5813 5814 5815 5815
5725 5723 5721 5720 5718 5717 5719 5716 5714 5713 5715 5715 5717 5720 5722 5723 5726 5727 5730 5730 5733 5737 5740 5744 5746 5749 5753 5758 5763 5767 5769 5770 5772 5779 5784 5788 5791 5795 5799 5801 5802 5804 5803 5807